Weather History for Burlington, NC

Change the Weather History Date:

Monday, February 18, 2013

  Actual Average Record
Temperature  
Mean Temperature 34 °F -  
Max Temperature 53 °F 52 °F 78 °F (1976)
Min Temperature 15 °F 30 °F 4 °F (1958)
Degree Days  
Heating Degree Days 31    
Moisture  
Dew Point 18 °F    
Average Humidity 54    
Maximum Humidity 88    
Minimum Humidity 28    
Precipitation  
Precipitation 0.00 in - - ()
Sea Level Pressure  
Sea Level Pressure 30.31 in    
Wind  
Wind Speed 3 mph (South)    
Max Wind Speed 13 mph    
Max Gust Speed 20 mph    
Visibility 10 miles    
Events      
Averages and records for this station are not official NWS values.
T = Trace of Precipitation, MM = Missing Value Source: NWS Daily Summary

Daily Weather History Graph

Daily Weather History Graph

Search for Another Location

Airport:

Trip Planner

Search our weather history database for the weather conditions in past years. The results will help you decide how hot, cold, wet, or windy it might be!

Date:

Astronomy

Feb. 18, 2013 Rise Set
Actual Time 7:01 AM EST 6:02 PM EST
Civil Twilight 6:35 AM EST 6:28 PM EST
Nautical Twilight 6:05 AM EST 6:58 PM EST
Astronomical Twilight 5:35 AM EST 7:28 PM EST
Moon 11:52 AM EST (2/18) 1:34 AM EST (2/18)
Length of Visible Light 11h 53m
Length of Day
11h 01m
First Quarter, 58% of the Moon is Illuminated
Feb 18
First Quarter
Feb 25
Full
Mar 4
Last Quarter
Mar 11
New
Mar 19
First Quarter

Hourly Weather History & Observations

Time (EST) Temp. Windchill Dew Point Humidity Pressure Visibility Wind Dir Wind Speed Gust Speed Precip Events Conditions
12:54 AM 19.9 °F - 14.0 °F 78% 30.29 in 10.0 mi Calm Calm - N/A   Clear
1:54 AM 19.0 °F - 15.1 °F 85% 30.31 in 10.0 mi Calm Calm - N/A   Clear
2:54 AM 19.0 °F - 15.1 °F 85% 30.32 in 10.0 mi Calm Calm - N/A   Clear
3:54 AM 18.0 °F - 12.9 °F 81% 30.32 in 10.0 mi Calm Calm - N/A   Clear
4:54 AM 19.0 °F - 14.0 °F 81% 30.33 in 9.0 mi Calm Calm - N/A   Clear
5:54 AM 17.1 °F - 14.0 °F 88% 30.36 in 10.0 mi Calm Calm - N/A   Clear
6:54 AM 15.1 °F - 12.0 °F 88% 30.37 in 10.0 mi Calm Calm - N/A   Clear
7:54 AM 19.9 °F - 16.0 °F 85% 30.39 in 10.0 mi Calm Calm - N/A   Clear
8:54 AM 27.0 °F - 16.0 °F 63% 30.40 in 10.0 mi Calm Calm - N/A   Clear
9:54 AM 36.0 °F 33.3 °F 16.0 °F 44% 30.40 in 10.0 mi SSW 3.5 mph - N/A   Clear
10:54 AM 42.1 °F 39.2 °F 16.0 °F 35% 30.38 in 10.0 mi Variable 4.6 mph - N/A   Clear
11:54 AM 45.0 °F 41.2 °F 15.1 °F 30% 30.37 in 10.0 mi South 6.9 mph - N/A   Clear
12:54 PM 48.0 °F - 17.1 °F 29% 30.34 in 10.0 mi SW 9.2 mph - N/A   Clear
1:54 PM 51.1 °F - 19.0 °F 28% 30.30 in 10.0 mi SSW 10.4 mph - N/A   Clear
2:54 PM 52.0 °F - 19.9 °F 28% 30.28 in 10.0 mi SW 9.2 mph - N/A   Clear
3:54 PM 53.1 °F - 21.0 °F 29% 30.27 in 10.0 mi South 12.7 mph 19.6 mph N/A   Clear
4:54 PM 51.1 °F - 21.0 °F 31% 30.27 in 10.0 mi South 6.9 mph - N/A   Clear
5:54 PM 48.9 °F - 21.9 °F 35% 30.28 in 10.0 mi South 3.5 mph - N/A   Clear
6:54 PM 45.0 °F 43.5 °F 21.0 °F 39% 30.28 in 10.0 mi SSE 3.5 mph - N/A   Clear
7:54 PM 43.0 °F 41.3 °F 21.0 °F 42% 30.27 in 10.0 mi SSE 3.5 mph - N/A   Clear
8:54 PM 42.1 °F 40.2 °F 21.0 °F 43% 30.27 in 10.0 mi SSE 3.5 mph - N/A   Clear
9:54 PM 42.1 °F 38.4 °F 21.9 °F 45% 30.25 in 10.0 mi South 5.8 mph - N/A   Clear
10:54 PM 41.0 °F 35.8 °F 23.0 °F 49% 30.25 in 10.0 mi South 8.1 mph - N/A   Clear
11:54 PM 39.9 °F 35.1 °F 24.1 °F 53% 30.22 in 10.0 mi South 6.9 mph - N/A   Clear